Weather History for Wichita, KS

Change the Weather History Date:

Saturday, December 7, 2013

  Actual Average Record
Temperature  
Mean Temperature 15 °F 36 °F  
Max Temperature 24 °F 46 °F 75 °F (1966)
Min Temperature 6 °F 26 °F 0 °F (1917)
Degree Days  
Heating Degree Days 50 29  
Month to date heating degree days 238 198  
Since 1 July heating degree days 1123 1074  
Cooling Degree Days 0 0  
Month to date cooling degree days 0 0  
Year to date cooling degree days 1778 1686  
Moisture  
Dew Point 0 °F    
Average Humidity 54    
Maximum Humidity 69    
Minimum Humidity 38    
Precipitation  
Precipitation 0.00 in 0.05 in 1.83 in (1980)
Month to date precipitation T 0.31  
Year to date precipitation 39.85 31.75  
Snow  
Snow 0.00 in 0.10 in 5.00 in (1892)
Month to date snowfall T 0.8  
Since 1 July snowfall T 2.2  
Snow Depth 0.00 in    
Sea Level Pressure  
Sea Level Pressure 30.57 in    
Wind  
Wind Speed 10 mph (ENE)    
Max Wind Speed 17 mph    
Max Gust Speed 21 mph    
Visibility 10 miles    
Events      
T = Trace of Precipitation, MM = Missing Value Source: NWS Daily Summary

Daily Weather History Graph

Daily Weather History Graph

Search for Another Location

Airport:

Trip Planner

Search our weather history database for the weather conditions in past years. The results will help you decide how hot, cold, wet, or windy it might be!

Date:

Astronomy

Dec. 07, 2013 Rise Set
Actual Time 7:31 AM CST 5:10 PM CST
Civil Twilight 7:02 AM CST 5:40 PM CST
Nautical Twilight 6:29 AM CST 6:12 PM CST
Astronomical Twilight 5:58 AM CST 6:44 PM CST
Moon 11:21 AM CST (12/7) 10:49 PM CST (12/7)
Length of Visible Light 10h 37m
Length of Day
9h 39m
Waxing Crescent, 29% of the Moon is Illuminated
Dec 7
Waxing Crescent
Dec 9
First Quarter
Dec 17
Full
Dec 25
Last Quarter
Jan 1
New

Hourly Weather History & Observations

Time (CST) Temp. Windchill Dew Point Humidity Pressure Visibility Wind Dir Wind Speed Gust Speed Precip Events Conditions
12:53 AM 10.0 °F -3.7 °F -4.0 °F 53% 30.68 in 10.0 mi NNE 10.4 mph - N/A   Clear
1:53 AM 9.0 °F -5.1 °F -2.9 °F 59% 30.70 in 10.0 mi NE 10.4 mph - N/A   Clear
2:53 AM 9.0 °F -5.1 °F -2.9 °F 59% 30.70 in 10.0 mi NNE 10.4 mph - N/A   Clear
3:53 AM 7.0 °F -5.7 °F -2.9 °F 64% 30.71 in 10.0 mi NE 8.1 mph - N/A   Clear
4:53 AM 7.0 °F -6.6 °F -2.9 °F 64% 30.70 in 10.0 mi NNE 9.2 mph - N/A   Clear
5:53 AM 7.0 °F -6.6 °F -2.9 °F 64% 30.71 in 10.0 mi NE 9.2 mph - N/A   Clear
6:53 AM 6.1 °F -8.7 °F -2.0 °F 69% 30.71 in 10.0 mi NNE 10.4 mph - N/A   Clear
7:53 AM 6.1 °F -8.7 °F -2.0 °F 69% 30.72 in 10.0 mi NE 10.4 mph - N/A   Partly Cloudy
8:53 AM 9.0 °F -6.6 °F -0.9 °F 64% 30.71 in 10.0 mi NE 12.7 mph - N/A   Partly Cloudy
9:53 AM 12.0 °F -0.4 °F -0.0 °F 59% 30.72 in 10.0 mi NE 9.2 mph - N/A   Scattered Clouds
10:53 AM 15.1 °F 4.2 °F -0.0 °F 51% 30.70 in 10.0 mi East 8.1 mph - N/A   Scattered Clouds
11:53 AM 19.0 °F 8.2 °F -0.0 °F 43% 30.66 in 10.0 mi ESE 9.2 mph - N/A   Mostly Cloudy
12:53 PM 19.9 °F 12.1 °F -0.0 °F 42% 30.59 in 10.0 mi Variable 5.8 mph - 0.01 in   Mostly Cloudy
1:53 PM 23.0 °F 13.1 °F -0.0 °F 37% 30.54 in 10.0 mi ESE 9.2 mph - N/A   Overcast
2:53 PM 23.0 °F 12.4 °F -0.9 °F 35% 30.49 in 10.0 mi East 10.4 mph - N/A   Overcast
3:53 PM 23.0 °F 12.4 °F 1.0 °F 39% 30.49 in 10.0 mi ESE 10.4 mph - N/A   Overcast
4:53 PM 21.9 °F 12.5 °F 1.0 °F 40% 30.48 in 10.0 mi ESE 8.1 mph - N/A   Overcast
5:53 PM 21.9 °F 12.5 °F 1.9 °F 42% 30.46 in 10.0 mi East 8.1 mph - N/A   Overcast
6:53 PM 21.9 °F 10.4 °F 3.0 °F 44% 30.43 in 10.0 mi East 11.5 mph - N/A   Overcast
7:53 PM 21.9 °F 8.7 °F 1.9 °F 42% 30.39 in 10.0 mi East 15.0 mph - N/A   Overcast
8:53 PM 21.0 °F 9.3 °F 3.0 °F 46% 30.38 in 10.0 mi ESE 11.5 mph - N/A   Overcast
9:53 PM 21.0 °F 8.6 °F 3.9 °F 48% 30.37 in 10.0 mi ESE 12.7 mph - N/A   Overcast
10:53 PM 19.9 °F 7.9 °F 5.0 °F 52% 30.35 in 10.0 mi SE 11.5 mph - N/A   Overcast
11:53 PM 19.9 °F 10.1 °F 6.1 °F 55% 30.32 in 10.0 mi SE 8.1 mph - N/A   Overcast